Time,TemperatureF,DewpointF,PressureIn,WindDirection,WindDirectionDegrees,WindSpeedMPH,WindSpeedGustMPH,Humidity,HourlyPrecipIn,Conditions,Clouds,dailyrainin,SoftwareType,DateUTC
2013-03-08 00:00:00,49.0,46.0,-100.00,ENE,68,3.0,-999.0,87,0.00,,,-99.99,,2013-03-08 08:00:00,
2013-03-08 00:22:00,49.0,46.0,-100.00,ENE,68,3.0,-999.0,87,0.00,,,-99.99,,2013-03-08 08:22:00,
2013-03-08 00:32:00,49.0,46.0,-100.00,ENE,68,3.0,-999.0,87,0.00,,,-99.99,,2013-03-08 08:32:00,
2013-03-08 00:42:00,49.0,46.0,-100.00,ENE,68,3.0,-999.0,87,0.00,,,-99.99,,2013-03-08 08:42:00,
2013-03-08 00:52:00,49.0,46.0,-100.00,ENE,68,3.0,-999.0,87,0.00,,,-99.99,,2013-03-08 08:52:00,
2013-03-08 01:00:00,48.0,45.0,-100.00,West,260,3.0,-999.0,86,0.00,,,-99.99,,2013-03-08 09:00:00,
2013-03-08 01:22:00,48.0,45.0,-100.00,West,260,3.0,-999.0,86,0.00,,,-99.99,,2013-03-08 09:22:00,
2013-03-08 01:32:00,48.0,45.0,-100.00,West,260,3.0,-999.0,86,0.00,,,-99.99,,2013-03-08 09:32:00,
2013-03-08 01:42:00,48.0,45.0,-100.00,West,260,3.0,-999.0,86,0.00,,,-99.99,,2013-03-08 09:42:00,
2013-03-08 01:52:00,48.0,45.0,-100.00,West,260,3.0,-999.0,86,0.00,,,-99.99,,2013-03-08 09:52:00,
2013-03-08 02:00:00,48.0,45.0,-100.00,West,259,4.0,-999.0,90,0.00,,,-99.99,,2013-03-08 10:00:00,
2013-03-08 02:21:00,48.0,45.0,-100.00,West,259,4.0,-999.0,90,0.00,,,-99.99,,2013-03-08 10:21:00,
2013-03-08 02:32:00,48.0,45.0,-100.00,West,259,4.0,-999.0,90,0.00,,,-99.99,,2013-03-08 10:32:00,
2013-03-08 02:42:00,48.0,45.0,-100.00,West,259,4.0,-999.0,90,0.00,,,-99.99,,2013-03-08 10:42:00,
2013-03-08 02:52:00,48.0,45.0,-100.00,West,259,4.0,-999.0,90,0.00,,,-99.99,,2013-03-08 10:52:00,
2013-03-08 03:00:00,46.0,43.0,-100.00,West,278,12.0,-999.0,87,0.00,,,-99.99,,2013-03-08 11:00:00,
2013-03-08 03:22:00,46.0,43.0,-100.00,West,278,12.0,-999.0,87,0.00,,,-99.99,,2013-03-08 11:22:00,
2013-03-08 03:32:00,46.0,43.0,-100.00,West,278,12.0,-999.0,87,0.00,,,-99.99,,2013-03-08 11:32:00,
2013-03-08 03:42:00,46.0,43.0,-100.00,West,278,12.0,-999.0,87,0.00,,,-99.99,,2013-03-08 11:42:00,
2013-03-08 03:52:00,46.0,43.0,-100.00,West,278,12.0,-999.0,87,0.00,,,-99.99,,2013-03-08 11:52:00,
2013-03-08 04:00:00,45.0,41.0,-100.00,West,265,9.0,-999.0,87,0.00,,,-99.99,,2013-03-08 12:00:00,
2013-03-08 04:22:00,45.0,41.0,-100.00,West,265,9.0,-999.0,87,0.00,,,-99.99,,2013-03-08 12:22:00,
2013-03-08 04:32:00,45.0,41.0,-100.00,West,265,9.0,-999.0,87,0.00,,,-99.99,,2013-03-08 12:32:00,
2013-03-08 04:43:00,45.0,41.0,-100.00,West,265,9.0,-999.0,87,0.00,,,-99.99,,2013-03-08 12:43:00,
2013-03-08 04:52:00,45.0,41.0,-100.00,West,265,9.0,-999.0,87,0.00,,,-99.99,,2013-03-08 12:52:00,
2013-03-08 05:00:00,44.0,41.0,-100.00,WSW,249,8.0,-999.0,89,0.00,,,-99.99,,2013-03-08 13:00:00,
2013-03-08 05:22:00,44.0,41.0,-100.00,WSW,249,8.0,-999.0,89,0.00,,,-99.99,,2013-03-08 13:22:00,
2013-03-08 05:32:00,44.0,41.0,-100.00,WSW,249,8.0,-999.0,89,0.00,,,-99.99,,2013-03-08 13:32:00,
2013-03-08 05:42:00,44.0,41.0,-100.00,WSW,249,8.0,-999.0,89,0.00,,,-99.99,,2013-03-08 13:42:00,
2013-03-08 05:52:00,44.0,41.0,-100.00,WSW,249,8.0,-999.0,89,0.00,,,-99.99,,2013-03-08 13:52:00,
2013-03-08 06:00:00,44.0,41.0,-100.00,South,173,5.0,-999.0,90,0.00,,,-99.99,,2013-03-08 14:00:00,
2013-03-08 06:22:00,44.0,41.0,-100.00,South,173,5.0,-999.0,90,0.00,,,-99.99,,2013-03-08 14:22:00,
2013-03-08 06:32:00,44.0,41.0,-100.00,South,173,5.0,-999.0,90,0.00,,,-99.99,,2013-03-08 14:32:00,
2013-03-08 06:42:00,44.0,41.0,-100.00,South,173,5.0,-999.0,90,0.00,,,-99.99,,2013-03-08 14:42:00,
2013-03-08 06:52:00,44.0,41.0,-100.00,South,173,5.0,-999.0,90,0.00,,,-99.99,,2013-03-08 14:52:00,
2013-03-08 07:00:00,44.0,41.0,-100.00,South,172,5.0,-999.0,90,0.00,,,-99.99,,2013-03-08 15:00:00,
2013-03-08 07:22:00,44.0,41.0,-100.00,South,172,5.0,-999.0,90,0.00,,,-99.99,,2013-03-08 15:22:00,
2013-03-08 07:32:00,44.0,41.0,-100.00,South,172,5.0,-999.0,90,0.00,,,-99.99,,2013-03-08 15:32:00,
2013-03-08 07:43:00,44.0,41.0,-100.00,South,172,5.0,-999.0,90,0.00,,,-99.99,,2013-03-08 15:43:00,
2013-03-08 07:53:00,44.0,41.0,-100.00,South,172,5.0,-999.0,90,0.00,,,-99.99,,2013-03-08 15:53:00,
2013-03-08 08:00:00,44.0,41.0,-100.00,SSE,162,9.0,-999.0,90,0.00,,,-99.99,,2013-03-08 16:00:00,
2013-03-08 08:22:00,44.0,41.0,-100.00,SSE,162,9.0,-999.0,90,0.00,,,-99.99,,2013-03-08 16:22:00,
2013-03-08 08:32:00,44.0,41.0,-100.00,SSE,162,9.0,-999.0,90,0.00,,,-99.99,,2013-03-08 16:32:00,
2013-03-08 08:42:00,44.0,41.0,-100.00,SSE,162,9.0,-999.0,90,0.00,,,-99.99,,2013-03-08 16:42:00,
2013-03-08 08:52:00,44.0,41.0,-100.00,SSE,162,9.0,-999.0,90,0.00,,,-99.99,,2013-03-08 16:52:00,
2013-03-08 09:00:00,43.0,39.0,-100.00,SE,127,8.0,-999.0,87,0.00,,,-99.99,,2013-03-08 17:00:00,
2013-03-08 09:22:00,43.0,39.0,-100.00,SE,127,8.0,-999.0,87,0.00,,,-99.99,,2013-03-08 17:22:00,
2013-03-08 09:32:00,43.0,39.0,-100.00,SE,127,8.0,-999.0,87,0.00,,,-99.99,,2013-03-08 17:32:00,
2013-03-08 09:42:00,43.0,39.0,-100.00,SE,127,8.0,-999.0,87,0.00,,,-99.99,,2013-03-08 17:42:00,
2013-03-08 09:52:00,43.0,39.0,-100.00,SE,127,8.0,-999.0,87,0.00,,,-99.99,,2013-03-08 17:52:00,
2013-03-08 10:00:00,44.0,39.0,-100.00,SSE,159,4.0,-999.0,83,0.00,,,-99.99,,2013-03-08 18:00:00,
2013-03-08 10:22:00,44.0,39.0,-100.00,SSE,159,4.0,-999.0,83,0.00,,,-99.99,,2013-03-08 18:22:00,
2013-03-08 10:32:00,44.0,39.0,-100.00,SSE,159,4.0,-999.0,83,0.00,,,-99.99,,2013-03-08 18:32:00,
2013-03-08 10:42:00,44.0,39.0,-100.00,SSE,159,4.0,-999.0,83,0.00,,,-99.99,,2013-03-08 18:42:00,
2013-03-08 10:52:00,44.0,39.0,-100.00,SSE,159,4.0,-999.0,83,0.00,,,-99.99,,2013-03-08 18:52:00,
2013-03-08 11:00:00,44.0,40.0,-100.00,SSW,193,7.0,-999.0,83,0.00,,,-99.99,,2013-03-08 19:00:00,
2013-03-08 11:22:00,44.0,40.0,-100.00,SSW,193,7.0,-999.0,83,0.00,,,-99.99,,2013-03-08 19:22:00,
2013-03-08 11:32:00,44.0,40.0,-100.00,SSW,193,7.0,-999.0,83,0.00,,,-99.99,,2013-03-08 19:32:00,
2013-03-08 11:42:00,44.0,40.0,-100.00,SSW,193,7.0,-999.0,83,0.00,,,-99.99,,2013-03-08 19:42:00,
2013-03-08 11:52:00,44.0,40.0,-100.00,SSW,193,7.0,-999.0,83,0.00,,,-99.99,,2013-03-08 19:52:00,
2013-03-08 12:00:00,46.0,41.0,-100.00,South,170,8.0,-999.0,80,0.00,,,-99.99,,2013-03-08 20:00:00,
2013-03-08 12:22:00,46.0,41.0,-100.00,South,170,8.0,-999.0,80,0.00,,,-99.99,,2013-03-08 20:22:00,
2013-03-08 12:32:00,46.0,41.0,-100.00,South,170,8.0,-999.0,80,0.00,,,-99.99,,2013-03-08 20:32:00,
2013-03-08 12:42:00,46.0,41.0,-100.00,South,170,8.0,-999.0,80,0.00,,,-99.99,,2013-03-08 20:42:00,
2013-03-08 12:53:00,46.0,41.0,-100.00,South,170,8.0,-999.0,80,0.00,,,-99.99,,2013-03-08 20:53:00,
2013-03-08 13:00:00,47.0,41.0,-100.00,SW,214,5.0,-999.0,79,0.00,,,-99.99,,2013-03-08 21:00:00,
2013-03-08 13:22:00,47.0,41.0,-100.00,SW,214,5.0,-999.0,79,0.00,,,-99.99,,2013-03-08 21:22:00,
2013-03-08 13:32:00,47.0,41.0,-100.00,SW,214,5.0,-999.0,79,0.00,,,-99.99,,2013-03-08 21:32:00,
2013-03-08 13:42:00,47.0,41.0,-100.00,SW,214,5.0,-999.0,79,0.00,,,-99.99,,2013-03-08 21:42:00,
2013-03-08 13:52:00,47.0,41.0,-100.00,SW,214,5.0,-999.0,79,0.00,,,-99.99,,2013-03-08 21:52:00,
2013-03-08 14:00:00,46.0,41.0,-100.00,South,181,3.0,-999.0,80,0.00,,,-99.99,,2013-03-08 22:00:00,
2013-03-08 14:22:00,46.0,41.0,-100.00,South,181,3.0,-999.0,80,0.00,,,-99.99,,2013-03-08 22:22:00,
2013-03-08 14:32:00,46.0,41.0,-100.00,South,181,3.0,-999.0,80,0.00,,,-99.99,,2013-03-08 22:32:00,
2013-03-08 14:42:00,46.0,41.0,-100.00,South,181,3.0,-999.0,80,0.00,,,-99.99,,2013-03-08 22:42:00,
2013-03-08 14:52:00,46.0,41.0,-100.00,South,181,3.0,-999.0,80,0.00,,,-99.99,,2013-03-08 22:52:00,
2013-03-08 15:00:00,46.0,42.0,-100.00,SSE,151,5.0,-999.0,85,0.00,,,-99.99,,2013-03-08 23:00:00,
2013-03-08 15:22:00,46.0,42.0,-100.00,SSE,151,5.0,-999.0,85,0.00,,,-99.99,,2013-03-08 23:22:00,
2013-03-08 15:32:00,46.0,42.0,-100.00,SSE,151,5.0,-999.0,85,0.00,,,-99.99,,2013-03-08 23:32:00,
2013-03-08 15:42:00,46.0,42.0,-100.00,SSE,151,5.0,-999.0,85,0.00,,,-99.99,,2013-03-08 23:42:00,
2013-03-08 15:52:00,46.0,42.0,-100.00,SSE,151,5.0,-999.0,85,0.00,,,-99.99,,2013-03-08 23:52:00,
2013-03-08 16:00:00,47.0,42.0,-100.00,SSE,164,6.0,-999.0,81,0.00,,,-99.99,,2013-03-09 00:00:00,
2013-03-08 16:22:00,47.0,42.0,-100.00,SSE,164,6.0,-999.0,81,0.00,,,-99.99,,2013-03-09 00:22:00,
2013-03-08 16:32:00,47.0,42.0,-100.00,SSE,164,6.0,-999.0,81,0.00,,,-99.99,,2013-03-09 00:32:00,
2013-03-08 16:42:00,47.0,42.0,-100.00,SSE,164,6.0,-999.0,81,0.00,,,-99.99,,2013-03-09 00:42:00,
2013-03-08 16:52:00,47.0,42.0,-100.00,SSE,164,6.0,-999.0,81,0.00,,,-99.99,,2013-03-09 00:52:00,
2013-03-08 17:00:00,48.0,41.0,-100.00,SE,127,5.0,-999.0,76,0.00,,,-99.99,,2013-03-09 01:00:00,
2013-03-08 17:22:00,48.0,41.0,-100.00,SE,127,5.0,-999.0,76,0.00,,,-99.99,,2013-03-09 01:22:00,
2013-03-08 17:32:00,48.0,41.0,-100.00,SE,127,5.0,-999.0,76,0.00,,,-99.99,,2013-03-09 01:32:00,
2013-03-08 17:42:00,48.0,41.0,-100.00,SE,127,5.0,-999.0,76,0.00,,,-99.99,,2013-03-09 01:42:00,
2013-03-08 17:52:00,48.0,41.0,-100.00,SE,127,5.0,-999.0,76,0.00,,,-99.99,,2013-03-09 01:52:00,
2013-03-08 18:00:00,47.0,42.0,-100.00,SSE,150,4.0,-999.0,81,0.00,,,-99.99,,2013-03-09 02:00:00,
2013-03-08 18:21:00,47.0,42.0,-100.00,SSE,150,4.0,-999.0,81,0.00,,,-99.99,,2013-03-09 02:21:00,
2013-03-08 18:31:00,47.0,42.0,-100.00,SSE,150,4.0,-999.0,81,0.00,,,-99.99,,2013-03-09 02:31:00,
2013-03-08 18:41:00,47.0,42.0,-100.00,SSE,150,4.0,-999.0,81,0.00,,,-99.99,,2013-03-09 02:41:00,
2013-03-08 18:51:00,47.0,42.0,-100.00,SSE,150,4.0,-999.0,81,0.00,,,-99.99,,2013-03-09 02:51:00,
2013-03-08 19:00:00,46.0,42.0,-100.00,ESE,119,2.0,-999.0,86,0.00,,,-99.99,,2013-03-09 03:00:00,
2013-03-08 19:32:00,46.0,42.0,-100.00,ESE,119,2.0,-999.0,86,0.00,,,-99.99,,2013-03-09 03:32:00,
2013-03-08 19:42:00,46.0,42.0,-100.00,ESE,119,2.0,-999.0,86,0.00,,,-99.99,,2013-03-09 03:42:00,
2013-03-08 19:52:00,46.0,42.0,-100.00,ESE,119,2.0,-999.0,86,0.00,,,-99.99,,2013-03-09 03:52:00,
2013-03-08 20:00:00,43.0,39.0,-100.00,ESE,123,4.0,-999.0,88,0.00,,,-99.99,,2013-03-09 04:00:00,
2013-03-08 20:22:00,43.0,39.0,-100.00,ESE,123,4.0,-999.0,88,0.00,,,-99.99,,2013-03-09 04:22:00,
2013-03-08 20:32:00,43.0,39.0,-100.00,ESE,123,4.0,-999.0,88,0.00,,,-99.99,,2013-03-09 04:32:00,
2013-03-08 20:42:00,43.0,39.0,-100.00,ESE,123,4.0,-999.0,88,0.00,,,-99.99,,2013-03-09 04:42:00,
2013-03-08 20:52:00,43.0,39.0,-100.00,ESE,123,4.0,-999.0,88,0.00,,,-99.99,,2013-03-09 04:52:00,
2013-03-08 21:00:00,44.0,41.0,-100.00,East,96,6.0,-999.0,87,0.00,,,-99.99,,2013-03-09 05:00:00,
2013-03-08 21:22:00,44.0,41.0,-100.00,East,96,6.0,-999.0,87,0.00,,,-99.99,,2013-03-09 05:22:00,
2013-03-08 21:32:00,44.0,41.0,-100.00,East,96,6.0,-999.0,87,0.00,,,-99.99,,2013-03-09 05:32:00,
2013-03-08 21:43:00,44.0,41.0,-100.00,East,96,6.0,-999.0,87,0.00,,,-99.99,,2013-03-09 05:43:00,
2013-03-08 21:53:00,44.0,41.0,-100.00,East,96,6.0,-999.0,87,0.00,,,-99.99,,2013-03-09 05:53:00,
2013-03-08 22:00:00,45.0,41.0,-100.00,SW,222,3.0,-999.0,88,0.00,,,-99.99,,2013-03-09 06:00:00,
2013-03-08 22:22:00,45.0,41.0,-100.00,SW,222,3.0,-999.0,88,0.00,,,-99.99,,2013-03-09 06:22:00,
2013-03-08 22:32:00,45.0,41.0,-100.00,SW,222,3.0,-999.0,88,0.00,,,-99.99,,2013-03-09 06:32:00,
2013-03-08 22:42:00,45.0,41.0,-100.00,SW,222,3.0,-999.0,88,0.00,,,-99.99,,2013-03-09 06:42:00,
2013-03-08 22:52:00,45.0,41.0,-100.00,SW,222,3.0,-999.0,88,0.00,,,-99.99,,2013-03-09 06:52:00,
2013-03-08 23:00:00,46.0,42.0,-100.00,NNE,21,5.0,-999.0,85,0.00,,,-99.99,,2013-03-09 07:00:00,
2013-03-08 23:21:00,46.0,42.0,-100.00,NNE,21,5.0,-999.0,85,0.00,,,-99.99,,2013-03-09 07:21:00,
2013-03-08 23:32:00,46.0,42.0,-100.00,NNE,21,5.0,-999.0,85,0.00,,,-99.99,,2013-03-09 07:32:00,
2013-03-08 23:42:00,46.0,42.0,-100.00,NNE,21,5.0,-999.0,85,0.00,,,-99.99,,2013-03-09 07:42:00,
2013-03-08 23:52:00,46.0,42.0,-100.00,NNE,21,5.0,-999.0,85,0.00,,,-99.99,,2013-03-09 07:52:00,